contact:dominique.lefevre@mio.osupytheas.fr, maurice.libes@osupytheas.fr, didier.mallarino@osupytheas.fr
Project:EMSO http://www.emso-fr.org/EMSO-France
Depth: 2436.0 m
Title:EMSO Ligure Ouest : Data MII capteur AQUADOPP
Date,Latitude,Longitude,X_East,Y_North,Z_Up,Amplitude_X,Amplitude_Y,Amplitude_Z,Batterie,SoundSpeed,Heading,Pitch,Roll,Pressure,TIS,Speed,Direction
, degrees North, degrees East, m.s-1, m.s-1,m.s-1, 1, 1, 1, Volt, m.s-1, degree, degree, degree, dbar, degree_C, m.s-1, degree
2021-02-23T00:04:03,42.805,6.029,0.083,-0.065,-0.008,104.0,104.0,103.0,13.3,1505.2,323.3,-0.8,1.8,2470.495,13.28,0.105,128.1
2021-02-23T00:07:03,42.805,6.029,0.072,-0.063,0.004,105.0,103.0,103.0,13.4,1505.2,328.7,-0.8,1.8,2470.542,13.28,0.095,131.2
2021-02-23T00:10:03,42.805,6.029,0.062,-0.027,0.033,105.0,104.0,102.0,13.4,1505.2,326.1,-0.7,1.8,2470.506,13.28,0.067,113.5
2021-02-23T00:13:03,42.805,6.029,0.087,-0.035,0.042,104.0,103.0,102.0,13.4,1505.2,327.9,-0.8,1.8,2470.524,13.28,0.093,111.9
2021-02-23T00:16:03,42.805,6.029,0.042,-0.028,0.012,105.0,103.0,103.0,13.4,1505.2,327.0,-0.8,1.8,2470.517,13.28,0.05,123.7
2021-02-23T00:19:03,42.805,6.029,0.084,-0.054,0.024,104.0,105.0,103.0,13.3,1505.2,328.0,-0.8,1.8,2470.505,13.28,0.099,122.7
2021-02-23T00:22:03,42.805,6.029,0.089,-0.049,-0.002,103.0,104.0,102.0,13.3,1505.2,326.9,-0.8,1.8,2470.523,13.28,0.101,118.8
2021-02-23T00:25:03,42.805,6.029,0.094,-0.03,0.025,105.0,105.0,102.0,13.3,1505.2,328.1,-0.8,1.8,2470.503,13.28,0.098,107.7
2021-02-23T00:28:03,42.805,6.029,0.079,-0.021,0.022,104.0,104.0,103.0,13.4,1505.2,323.4,-0.8,1.8,2470.508,13.28,0.081,104.9
2021-02-23T00:31:03,42.805,6.029,0.077,-0.054,0.031,103.0,103.0,102.0,13.4,1505.2,326.4,-0.7,1.8,2470.49,13.28,0.094,125.0
2021-02-23T00:34:03,42.805,6.029,0.06,-0.041,-0.004,101.0,102.0,102.0,13.4,1505.2,324.5,-0.7,1.8,2470.497,13.28,0.072,124.3
2021-02-23T00:37:03,42.805,6.029,0.061,-0.043,0.032,104.0,102.0,103.0,13.3,1505.2,328.3,-0.8,1.8,2470.483,13.28,0.074,125.2
2021-02-23T00:40:03,42.805,6.029,0.077,-0.03,0.024,103.0,103.0,101.0,13.3,1505.2,323.8,-0.7,1.8,2470.512,13.28,0.082,111.3
2021-02-23T00:43:03,42.805,6.029,0.086,-0.036,0.026,102.0,103.0,101.0,13.3,1505.2,326.1,-0.8,1.8,2470.508,13.28,0.093,112.7
2021-02-23T00:46:03,42.805,6.029,0.09,-0.038,0.016,102.0,103.0,101.0,13.4,1505.2,323.1,-0.7,1.8,2470.525,13.28,0.097,112.9
2021-02-23T00:49:03,42.805,6.029,0.066,-0.062,0.028,103.0,102.0,101.0,13.4,1505.2,326.5,-0.7,1.8,2470.518,13.28,0.09,133.2
2021-02-23T00:52:03,42.805,6.029,0.08,-0.045,0.03,102.0,102.0,101.0,13.3,1505.2,325.0,-0.7,1.8,2470.5,13.28,0.091,119.4
2021-02-23T00:55:03,42.805,6.029,0.067,-0.026,0.018,103.0,103.0,101.0,13.4,1505.2,328.1,-0.8,1.8,2470.51,13.28,0.071,111.2
2021-02-23T00:58:03,42.805,6.029,0.077,-0.03,0.023,102.0,103.0,101.0,13.3,1505.2,322.7,-0.8,1.8,2470.48,13.28,0.082,111.3
2021-02-23T01:04:03,42.805,6.029,0.072,-0.039,0.06,102.0,102.0,102.0,13.4,1505.2,324.4,-0.7,1.8,2470.559,13.28,0.081,118.4
2021-02-23T01:07:03,42.805,6.029,0.083,-0.047,0.029,103.0,102.0,101.0,13.4,1505.2,328.4,-0.8,1.8,2470.508,13.28,0.095,119.5
2021-02-23T01:10:03,42.805,6.029,0.088,-0.027,0.046,105.0,104.0,101.0,13.4,1505.2,325.0,-0.7,1.8,2470.52,13.28,0.092,107.1
2021-02-23T01:13:03,42.805,6.029,0.102,-0.045,0.045,103.0,102.0,101.0,13.4,1505.2,324.7,-0.8,1.8,2470.514,13.28,0.111,113.8
2021-02-23T01:16:03,42.805,6.029,0.073,-0.043,0.021,103.0,102.0,102.0,13.3,1505.2,327.9,-0.8,1.8,2470.533,13.28,0.084,120.5
2021-02-23T01:19:03,42.805,6.029,0.067,-0.053,-0.002,103.0,102.0,101.0,13.4,1505.2,325.5,-0.8,1.9,2470.523,13.28,0.085,128.3
2021-02-23T01:22:03,42.805,6.029,0.078,-0.043,0.014,103.0,102.0,102.0,13.3,1505.2,326.0,-0.8,1.8,2470.565,13.28,0.089,118.9
2021-02-23T01:25:03,42.805,6.029,0.051,-0.027,0.022,102.0,103.0,101.0,13.4,1505.2,328.8,-0.8,1.9,2470.507,13.28,0.057,117.9
2021-02-23T01:28:03,42.805,6.029,0.057,-0.024,0.003,103.0,103.0,102.0,13.4,1505.2,324.9,-0.8,1.9,2470.536,13.28,0.061,112.8
2021-02-23T01:31:03,42.805,6.029,0.07,-0.032,0.022,104.0,103.0,101.0,13.4,1505.2,327.9,-0.7,1.9,2470.53,13.28,0.076,114.6
2021-02-23T01:34:03,42.805,6.029,0.066,-0.018,0.033,103.0,104.0,101.0,13.3,1505.2,325.0,-0.8,1.8,2470.545,13.28,0.068,105.3
2021-02-23T01:37:03,42.805,6.029,0.051,-0.036,0.016,102.0,103.0,101.0,13.4,1505.2,324.5,-0.8,1.8,2470.523,13.28,0.062,125.2
2021-02-23T01:40:03,42.805,6.029,0.064,-0.04,-0.002,102.0,103.0,102.0,13.4,1505.2,326.0,-0.8,1.9,2470.5,13.28,0.075,122.0
2021-02-23T01:43:03,42.805,6.029,0.043,-0.048,0.034,103.0,104.0,102.0,13.3,1505.2,326.7,-0.8,1.8,2470.536,13.28,0.064,138.1
2021-02-23T01:46:03,42.805,6.029,0.069,-0.033,0.0,103.0,103.0,101.0,13.4,1505.2,325.7,-0.8,1.9,2470.55,13.28,0.076,115.6
2021-02-23T01:49:03,42.805,6.029,0.095,-0.026,0.024,102.0,103.0,103.0,13.4,1505.2,322.8,-0.8,1.8,2470.583,13.28,0.098,105.3
2021-02-23T01:52:03,42.805,6.029,0.048,-0.025,-0.008,103.0,102.0,101.0,13.4,1505.2,323.3,-0.7,1.8,2470.542,13.28,0.054,117.5
2021-02-23T01:55:03,42.805,6.029,0.042,-0.029,0.028,102.0,103.0,101.0,13.4,1505.2,328.0,-0.8,1.8,2470.555,13.28,0.051,124.6
2021-02-23T01:58:03,42.805,6.029,0.073,-0.031,0.014,103.0,103.0,101.0,13.3,1505.2,323.9,-0.7,1.8,2470.497,13.28,0.079,113.0
2021-02-23T02:04:03,42.805,6.029,0.071,-0.054,0.028,103.0,102.0,102.0,13.3,1505.2,327.4,-0.7,1.9,2470.583,13.28,0.089,127.3
2021-02-23T02:07:03,42.805,6.029,0.084,-0.028,0.041,103.0,103.0,101.0,13.3,1505.2,325.4,-0.8,1.8,2470.537,13.28,0.088,108.4
2021-02-23T02:10:03,42.805,6.029,0.046,-0.022,0.025,103.0,104.0,102.0,13.4,1505.2,322.7,-0.8,1.9,2470.572,13.28,0.05,115.6
2021-02-23T02:13:03,42.805,6.029,0.07,-0.051,-0.015,102.0,104.0,102.0,13.4,1505.2,327.9,-0.8,1.8,2470.579,13.28,0.086,126.1
2021-02-23T02:16:03,42.805,6.029,0.062,-0.031,0.015,103.0,102.0,102.0,13.3,1505.2,326.1,-0.7,1.8,2470.589,13.28,0.069,116.6
2021-02-23T02:19:03,42.805,6.029,0.095,-0.043,0.03,103.0,104.0,101.0,13.4,1505.2,327.9,-0.8,1.8,2470.622,13.28,0.104,114.4
2021-02-23T02:22:03,42.805,6.029,0.073,-0.023,0.007,102.0,104.0,102.0,13.4,1505.2,326.1,-0.7,1.8,2470.518,13.28,0.076,107.5
2021-02-23T02:25:03,42.805,6.029,0.064,-0.036,0.004,102.0,103.0,102.0,13.4,1505.2,327.5,-0.8,1.8,2470.575,13.28,0.073,119.4
2021-02-23T02:28:03,42.805,6.029,0.058,-0.051,-0.021,103.0,103.0,101.0,13.4,1505.2,326.1,-0.8,1.8,2470.594,13.28,0.077,131.3
2021-02-23T02:31:03,42.805,6.029,0.06,-0.035,0.005,103.0,103.0,102.0,13.4,1505.2,325.5,-0.8,1.8,2470.578,13.28,0.069,120.3
2021-02-23T02:34:03,42.805,6.029,0.075,-0.045,0.011,103.0,103.0,101.0,13.4,1505.2,324.0,-0.8,1.8,2470.582,13.28,0.087,121.0
2021-02-23T02:37:03,42.805,6.029,0.07,-0.04,-0.006,103.0,103.0,102.0,13.4,1505.2,325.3,-0.8,1.8,2470.585,13.28,0.08,119.7
2021-02-23T02:40:03,42.805,6.029,0.072,-0.057,0.01,102.0,104.0,101.0,13.4,1505.2,327.7,-0.8,1.8,2470.576,13.28,0.091,128.4
2021-02-23T02:43:03,42.805,6.029,0.051,-0.022,0.019,103.0,103.0,101.0,13.4,1505.2,326.9,-0.8,1.8,2470.547,13.28,0.055,113.3
2021-02-23T02:46:03,42.805,6.029,0.049,-0.035,0.027,104.0,101.0,102.0,13.3,1505.2,325.9,-0.7,1.8,2470.554,13.28,0.06,125.5
2021-02-23T02:49:03,42.805,6.029,0.049,-0.041,0.024,103.0,104.0,100.0,13.4,1505.2,327.2,-0.8,1.8,2470.63,13.28,0.063,129.9
2021-02-23T02:52:03,42.805,6.029,0.068,-0.035,0.019,101.0,102.0,102.0,13.4,1505.2,325.1,-0.8,1.8,2470.584,13.28,0.076,117.2
2021-02-23T02:55:03,42.805,6.029,0.072,-0.047,0.009,102.0,101.0,102.0,13.4,1505.2,327.9,-0.8,1.8,2470.605,13.28,0.085,123.1
2021-02-23T02:58:03,42.805,6.029,0.052,-0.039,-0.011,103.0,103.0,101.0,13.3,1505.2,322.8,-0.8,1.8,2470.574,13.28,0.064,126.9
2021-02-23T03:04:03,42.805,6.029,0.053,-0.062,0.011,103.0,102.0,102.0,13.4,1505.2,326.9,-0.7,1.9,2470.612,13.28,0.081,139.5
2021-02-23T03:07:03,42.805,6.029,0.095,-0.041,0.025,103.0,103.0,101.0,13.3,1505.2,323.4,-0.8,1.8,2470.617,13.28,0.103,113.3
2021-02-23T03:10:03,42.805,6.029,0.048,-0.05,-0.012,103.0,103.0,101.0,13.4,1505.2,327.2,-0.8,1.8,2470.624,13.28,0.069,136.2
2021-02-23T03:13:03,42.805,6.029,0.08,-0.033,0.028,103.0,103.0,102.0,13.4,1505.2,326.8,-0.8,1.8,2470.628,13.28,0.086,112.4
2021-02-23T03:16:03,42.805,6.029,0.035,-0.046,-0.013,101.0,102.0,103.0,13.4,1505.2,325.5,-0.7,1.9,2470.629,13.28,0.057,142.7
2021-02-23T03:19:03,42.805,6.029,0.093,-0.043,0.009,101.0,103.0,101.0,13.4,1505.2,326.6,-0.7,1.8,2470.602,13.28,0.102,114.8
2021-02-23T03:22:03,42.805,6.029,0.052,-0.04,0.01,105.0,101.0,102.0,13.4,1505.2,328.0,-0.7,1.8,2470.543,13.28,0.065,127.6
2021-02-23T03:25:03,42.805,6.029,0.076,-0.043,0.03,102.0,102.0,101.0,13.3,1505.2,325.9,-0.7,1.8,2470.579,13.28,0.087,119.5
2021-02-23T03:28:03,42.805,6.029,0.064,-0.054,0.034,103.0,103.0,102.0,13.4,1505.2,324.0,-0.8,1.8,2470.585,13.28,0.083,130.2
2021-02-23T03:31:03,42.805,6.029,0.071,-0.03,0.036,103.0,104.0,102.0,13.3,1505.2,325.2,-0.7,1.8,2470.61,13.28,0.077,112.9
2021-02-23T03:34:03,42.805,6.029,0.053,-0.034,0.039,103.0,103.0,102.0,13.3,1505.2,327.0,-0.7,1.8,2470.598,13.28,0.062,122.7
2021-02-23T03:37:03,42.805,6.029,0.069,-0.029,-0.008,102.0,103.0,102.0,13.3,1505.2,326.0,-0.8,1.8,2470.616,13.28,0.074,112.8
2021-02-23T03:40:03,42.805,6.029,0.071,-0.027,-0.001,101.0,101.0,101.0,13.4,1505.2,324.6,-0.7,1.8,2470.6,13.28,0.075,110.8
2021-02-23T03:43:03,42.805,6.029,0.067,-0.037,0.015,101.0,101.0,101.0,13.4,1505.2,327.6,-0.8,1.8,2470.625,13.28,0.076,118.9
2021-02-23T03:46:03,42.805,6.029,0.078,-0.032,0.03,102.0,103.0,100.0,13.4,1505.2,324.7,-0.8,1.8,2470.626,13.28,0.084,112.3
2021-02-23T03:49:03,42.805,6.029,0.063,-0.021,0.04,100.0,101.0,101.0,13.4,1505.2,325.5,-0.8,1.8,2470.565,13.28,0.066,108.4
2021-02-23T03:52:03,42.805,6.029,0.041,-0.03,0.033,102.0,102.0,101.0,13.3,1505.2,327.5,-0.7,1.8,2470.622,13.28,0.05,126.2
2021-02-23T03:55:03,42.805,6.029,0.095,-0.044,0.043,100.0,102.0,101.0,13.4,1505.2,324.9,-0.8,1.9,2470.623,13.28,0.104,114.9
2021-02-23T03:58:03,42.805,6.029,0.061,-0.058,0.004,101.0,99.0,101.0,13.4,1505.2,326.2,-0.7,1.8,2470.576,13.28,0.084,133.6
2021-02-23T04:04:03,42.805,6.029,0.048,-0.044,-0.013,101.0,101.0,101.0,13.4,1505.2,325.9,-0.8,1.8,2470.659,13.28,0.065,132.5
2021-02-23T04:07:03,42.805,6.029,0.066,-0.054,0.005,103.0,101.0,101.0,13.4,1505.2,324.8,-0.8,1.8,2470.626,13.28,0.085,129.3
2021-02-23T04:10:03,42.805,6.029,0.055,-0.052,0.014,101.0,101.0,101.0,13.4,1505.2,327.2,-0.7,1.8,2470.608,13.28,0.075,133.4
2021-02-23T04:13:03,42.805,6.029,0.058,-0.03,0.026,102.0,100.0,101.0,13.3,1505.2,326.7,-0.7,1.9,2470.621,13.28,0.065,117.4
2021-02-23T04:16:03,42.805,6.029,0.046,-0.004,0.009,101.0,102.0,100.0,13.3,1505.2,326.0,-0.7,1.8,2470.678,13.28,0.046,95.0
2021-02-23T04:19:03,42.805,6.029,0.066,-0.041,0.012,102.0,99.0,101.0,13.4,1505.2,325.4,-0.8,1.8,2470.632,13.28,0.077,121.8
2021-02-23T04:22:03,42.805,6.029,0.054,-0.018,0.047,100.0,101.0,101.0,13.4,1505.2,326.1,-0.8,1.8,2470.604,13.28,0.056,108.4
2021-02-23T04:25:03,42.805,6.029,0.038,-0.032,0.001,101.0,101.0,100.0,13.4,1505.2,327.3,-0.8,1.8,2470.656,13.28,0.049,130.1
2021-02-23T04:28:03,42.805,6.029,0.071,-0.026,0.01,100.0,101.0,100.0,13.3,1505.2,326.4,-0.8,1.8,2470.622,13.28,0.075,110.1
2021-02-23T04:31:03,42.805,6.029,0.062,-0.044,0.039,101.0,99.0,101.0,13.4,1505.2,326.5,-0.8,1.8,2470.612,13.28,0.076,125.4
2021-02-23T04:34:03,42.805,6.029,0.068,-0.054,-0.002,100.0,101.0,99.0,13.4,1505.2,323.7,-0.8,1.8,2470.594,13.28,0.086,128.5
2021-02-23T04:37:03,42.805,6.029,0.067,-0.043,-0.005,100.0,101.0,100.0,13.4,1505.2,324.5,-0.8,1.8,2470.615,13.28,0.079,122.7
2021-02-23T04:40:03,42.805,6.029,0.049,-0.04,0.012,99.0,100.0,101.0,13.4,1505.2,324.7,-0.8,1.8,2470.612,13.28,0.063,129.2
2021-02-23T04:43:03,42.805,6.029,0.051,-0.037,0.014,101.0,102.0,100.0,13.4,1505.2,324.9,-0.7,1.8,2470.644,13.28,0.063,126.0
2021-02-23T04:46:03,42.805,6.029,0.077,-0.042,0.014,100.0,100.0,100.0,13.4,1505.2,327.5,-0.7,1.8,2470.634,13.28,0.087,118.6
2021-02-23T04:49:03,42.805,6.029,0.043,-0.025,0.024,102.0,101.0,100.0,13.4,1505.2,328.1,-0.7,1.8,2470.618,13.28,0.049,120.2
2021-02-23T04:52:03,42.805,6.029,0.076,-0.065,0.014,101.0,101.0,100.0,13.4,1505.2,325.9,-0.8,1.8,2470.632,13.28,0.1,130.5
2021-02-23T04:55:03,42.805,6.029,0.048,-0.024,0.015,100.0,101.0,100.0,13.3,1505.2,325.5,-0.8,1.8,2470.597,13.28,0.053,116.6
2021-02-23T04:58:03,42.805,6.029,0.075,-0.044,-0.007,101.0,100.0,101.0,13.4,1505.2,323.3,-0.7,1.9,2470.638,13.28,0.086,120.4
2021-02-23T05:04:03,42.805,6.029,0.038,-0.022,0.003,101.0,100.0,100.0,13.4,1505.2,327.3,-0.7,1.8,2470.667,13.28,0.043,120.1
2021-02-23T05:07:03,42.805,6.029,0.059,-0.03,0.046,100.0,101.0,100.0,13.4,1505.2,325.0,-0.8,1.8,2470.646,13.28,0.066,116.9
2021-02-23T05:10:03,42.805,6.029,0.027,-0.047,0.007,101.0,104.0,101.0,13.4,1505.2,326.9,-0.7,1.8,2470.684,13.28,0.054,150.1
2021-02-23T05:13:03,42.805,6.029,0.034,-0.032,-0.008,100.0,101.0,101.0,13.4,1505.2,323.8,-0.7,1.8,2470.675,13.28,0.046,133.3
2021-02-23T05:16:03,42.805,6.029,0.072,-0.029,0.009,101.0,102.0,101.0,13.4,1505.2,324.7,-0.7,1.9,2470.649,13.28,0.077,111.9
2021-02-23T05:19:03,42.805,6.029,0.065,-0.045,-0.004,101.0,102.0,101.0,13.4,1505.2,322.9,-0.8,1.9,2470.633,13.28,0.079,124.7
2021-02-23T05:22:03,42.805,6.029,0.057,-0.025,0.025,101.0,101.0,102.0,13.3,1505.2,325.0,-0.7,1.8,2470.64,13.28,0.062,113.7
2021-02-23T05:25:03,42.805,6.029,0.036,-0.027,0.016,101.0,102.0,101.0,13.3,1505.2,324.4,-0.8,1.8,2470.623,13.28,0.045,126.9
2021-02-23T05:28:03,42.805,6.029,0.047,-0.036,0.008,102.0,102.0,101.0,13.3,1505.2,327.5,-0.7,1.8,2470.613,13.28,0.059,127.5
2021-02-23T05:31:03,42.805,6.029,0.058,-0.043,0.001,102.0,102.0,100.0,13.4,1505.2,325.9,-0.8,1.8,2470.658,13.28,0.072,126.6
2021-02-23T05:34:03,42.805,6.029,0.044,-0.01,0.046,101.0,101.0,100.0,13.4,1505.2,325.0,-0.7,1.8,2470.641,13.28,0.045,102.8
2021-02-23T05:37:03,42.805,6.029,0.066,-0.059,0.018,102.0,100.0,101.0,13.3,1505.2,325.2,-0.7,1.8,2470.624,13.28,0.088,131.8
2021-02-23T05:40:03,42.805,6.029,0.051,-0.057,0.005,102.0,101.0,101.0,13.4,1505.2,326.7,-0.7,1.8,2470.614,13.28,0.076,138.2
2021-02-23T05:43:03,42.805,6.029,0.045,-0.041,0.017,101.0,101.0,101.0,13.3,1505.2,326.2,-0.7,1.8,2470.652,13.28,0.06,132.3
2021-02-23T05:46:03,42.805,6.029,0.03,-0.04,-0.008,102.0,102.0,102.0,13.4,1505.2,323.9,-0.8,1.8,2470.636,13.28,0.05,143.1
2021-02-23T05:49:03,42.805,6.029,0.026,-0.032,0.035,101.0,103.0,101.0,13.4,1505.2,327.5,-0.8,1.8,2470.641,13.28,0.041,140.9
2021-02-23T05:52:03,42.805,6.029,0.036,-0.03,0.025,102.0,102.0,101.0,13.4,1505.2,323.7,-0.8,1.8,2470.667,13.28,0.046,129.8
2021-02-23T05:55:03,42.805,6.029,0.02,-0.03,0.004,101.0,104.0,102.0,13.4,1505.2,327.2,-0.8,1.8,2470.66,13.28,0.036,146.3
2021-02-23T05:58:03,42.805,6.029,0.083,-0.031,0.033,102.0,103.0,102.0,13.4,1505.2,327.1,-0.8,1.8,2470.637,13.28,0.088,110.5
2021-02-23T06:04:03,42.805,6.029,0.053,0.001,0.075,102.0,102.0,102.0,13.4,1505.2,324.2,-0.7,1.8,2470.694,13.28,0.053,88.9
2021-02-23T06:07:03,42.805,6.029,0.058,-0.016,0.031,103.0,103.0,101.0,13.4,1505.2,327.5,-0.8,1.8,2470.634,13.28,0.06,105.4
2021-02-23T06:10:03,42.805,6.029,0.05,-0.023,-0.007,103.0,103.0,102.0,13.4,1505.2,322.8,-0.8,1.8,2470.674,13.28,0.055,114.7
2021-02-23T06:13:03,42.805,6.029,0.068,-0.024,0.017,104.0,103.0,102.0,13.3,1505.2,324.8,-0.7,1.8,2470.659,13.28,0.072,109.4
2021-02-23T06:16:03,42.805,6.029,0.053,-0.034,0.013,103.0,103.0,102.0,13.4,1505.2,325.1,-0.7,1.8,2470.647,13.28,0.062,122.7
2021-02-23T06:19:03,42.805,6.029,0.048,-0.022,0.0,103.0,103.0,101.0,13.4,1505.2,326.7,-0.8,1.8,2470.661,13.28,0.052,114.6
2021-02-23T06:22:03,42.805,6.029,0.062,-0.023,-0.002,103.0,104.0,102.0,13.4,1505.2,326.7,-0.7,1.8,2470.659,13.28,0.066,110.3
2021-02-23T06:25:03,42.805,6.029,0.075,-0.021,0.024,103.0,104.0,102.0,13.4,1505.2,322.7,-0.7,1.8,2470.648,13.28,0.077,105.6
2021-02-23T06:28:03,42.805,6.029,0.062,-0.032,0.031,103.0,105.0,101.0,13.3,1505.2,323.1,-0.8,1.8,2470.627,13.28,0.069,117.3
2021-02-23T06:31:03,42.805,6.029,0.075,-0.033,0.027,103.0,103.0,102.0,13.4,1505.2,326.7,-0.8,1.8,2470.646,13.28,0.081,113.7
2021-02-23T06:34:03,42.805,6.029,0.063,-0.017,0.037,102.0,104.0,102.0,13.4,1505.2,325.0,-0.8,1.8,2470.668,13.28,0.065,105.1
2021-02-23T06:37:03,42.805,6.029,0.069,-0.027,-0.017,103.0,105.0,101.0,13.4,1505.2,323.4,-0.8,1.8,2470.66,13.28,0.074,111.4
2021-02-23T06:40:03,42.805,6.029,0.038,-0.015,0.022,103.0,103.0,102.0,13.4,1505.2,324.7,-0.7,1.8,2470.624,13.28,0.04,111.5
2021-02-23T06:43:03,42.805,6.029,0.058,-0.027,0.037,103.0,102.0,101.0,13.4,1505.2,328.1,-0.7,1.8,2470.644,13.28,0.063,115.0
2021-02-23T06:46:03,42.805,6.029,0.064,-0.033,0.01,103.0,103.0,101.0,13.4,1505.2,325.8,-0.8,1.8,2470.618,13.28,0.072,117.3
2021-02-23T06:49:03,42.805,6.029,0.047,-0.016,0.026,103.0,104.0,102.0,13.4,1505.2,323.9,-0.8,1.8,2470.635,13.28,0.049,108.8
2021-02-23T06:52:03,42.805,6.029,0.052,-0.029,0.021,104.0,105.0,102.0,13.4,1505.2,324.7,-0.7,1.8,2470.635,13.28,0.059,119.1
2021-02-23T06:55:03,42.805,6.029,0.043,-0.015,0.031,106.0,106.0,102.0,13.4,1505.2,326.4,-0.7,1.8,2470.635,13.28,0.045,109.2
2021-02-23T06:58:03,42.805,6.029,0.073,-0.027,0.035,104.0,105.0,103.0,13.4,1505.2,325.2,-0.7,1.8,2470.633,13.28,0.077,110.3
2021-02-23T07:04:03,42.805,6.029,0.061,-0.015,0.03,104.0,104.0,103.0,13.3,1505.2,322.9,-0.8,1.8,2470.69,13.28,0.062,103.8
2021-02-23T07:07:03,42.805,6.029,0.046,-0.034,0.031,104.0,105.0,102.0,13.4,1505.2,322.9,-0.8,1.8,2470.664,13.28,0.057,126.5
2021-02-23T07:10:03,42.805,6.029,0.046,-0.016,0.006,104.0,105.0,103.0,13.3,1505.2,325.0,-0.8,1.8,2470.654,13.28,0.048,109.2
2021-02-23T07:13:03,42.805,6.029,0.048,-0.024,0.034,105.0,104.0,101.0,13.3,1505.2,326.4,-0.7,1.8,2470.643,13.28,0.053,116.6
2021-02-23T07:16:03,42.805,6.029,0.058,-0.025,0.011,104.0,104.0,103.0,13.4,1505.2,325.7,-0.8,1.8,2470.649,13.28,0.063,113.3
2021-02-23T07:19:03,42.805,6.029,0.047,-0.023,-0.013,104.0,105.0,102.0,13.4,1505.2,325.4,-0.8,1.8,2470.674,13.28,0.052,116.1
2021-02-23T07:22:03,42.805,6.029,0.053,-0.026,0.03,104.0,106.0,102.0,13.4,1505.2,327.1,-0.8,1.8,2470.663,13.28,0.059,116.1
2021-02-23T07:25:03,42.805,6.029,0.051,-0.02,0.027,105.0,105.0,103.0,13.4,1505.2,323.3,-0.8,1.8,2470.576,13.28,0.054,111.4
2021-02-23T07:28:03,42.805,6.029,0.069,-0.021,0.012,104.0,105.0,103.0,13.3,1505.2,323.1,-0.8,1.8,2470.625,13.28,0.072,106.9
2021-02-23T07:31:03,42.805,6.029,0.035,-0.022,0.016,104.0,105.0,102.0,13.4,1505.2,323.5,-0.7,1.8,2470.608,13.28,0.041,122.2
2021-02-23T07:34:03,42.805,6.029,0.069,-0.017,0.039,104.0,105.0,102.0,13.4,1505.2,326.3,-0.8,1.8,2470.618,13.28,0.071,103.8
2021-02-23T07:37:03,42.805,6.029,0.039,-0.003,0.016,103.0,105.0,103.0,13.4,1505.2,324.9,-0.7,1.8,2470.62,13.28,0.039,94.4
2021-02-23T07:40:03,42.805,6.029,0.068,-0.015,0.026,104.0,106.0,102.0,13.4,1505.2,325.3,-0.8,1.8,2470.615,13.28,0.069,102.4
2021-02-23T07:43:03,42.805,6.029,0.055,-0.034,0.02,104.0,104.0,103.0,13.3,1505.2,328.4,-0.7,1.8,2470.587,13.28,0.064,121.7
2021-02-23T07:46:03,42.805,6.029,0.061,-0.003,0.024,103.0,104.0,103.0,13.4,1505.2,323.5,-0.7,1.8,2470.639,13.28,0.061,92.8
2021-02-23T07:49:03,42.805,6.029,0.052,0.005,-0.004,104.0,105.0,103.0,13.4,1505.2,325.3,-0.8,1.8,2470.589,13.28,0.052,84.5
2021-02-23T07:52:03,42.805,6.029,0.095,-0.003,0.047,105.0,104.0,102.0,13.4,1505.2,324.7,-0.7,1.8,2470.61,13.28,0.095,91.8
2021-02-23T07:55:03,42.805,6.029,0.062,0.0,0.021,104.0,106.0,103.0,13.4,1505.2,328.2,-0.8,1.8,2470.593,13.28,0.061,90.0
2021-02-23T07:58:03,42.805,6.029,0.051,-0.019,-0.006,105.0,106.0,103.0,13.4,1505.2,326.3,-0.8,1.8,2470.651,13.28,0.054,110.4
2021-02-23T08:04:03,42.805,6.029,0.041,-0.014,0.023,104.0,105.0,102.0,13.4,1505.2,325.9,-0.8,1.8,2470.676,13.28,0.043,108.9
2021-02-23T08:07:03,42.805,6.029,0.072,-0.019,0.008,105.0,105.0,102.0,13.4,1505.2,323.3,-0.8,1.8,2470.621,13.28,0.074,104.8
2021-02-23T08:10:03,42.805,6.029,0.037,-0.025,0.018,104.0,106.0,102.0,13.4,1505.2,327.3,-0.7,1.8,2470.633,13.28,0.044,124.0
2021-02-23T08:13:03,42.805,6.029,0.074,-0.017,0.036,105.0,104.0,103.0,13.4,1505.2,326.1,-0.8,1.8,2470.611,13.28,0.075,102.9
2021-02-23T08:16:03,42.805,6.029,0.076,-0.014,-0.008,105.0,105.0,104.0,13.4,1505.2,327.6,-0.8,1.8,2470.633,13.28,0.077,100.4
2021-02-23T08:19:03,42.805,6.029,0.035,-0.021,-0.003,104.0,106.0,103.0,13.4,1505.2,326.5,-0.8,1.8,2470.617,13.28,0.04,121.0
2021-02-23T08:22:03,42.805,6.029,0.072,-0.022,0.02,105.0,106.0,103.0,13.4,1505.2,326.2,-0.7,1.9,2470.63,13.28,0.075,107.0
2021-02-23T08:25:03,42.805,6.029,0.065,-0.025,0.023,105.0,105.0,102.0,13.4,1505.2,325.4,-0.8,1.9,2470.586,13.28,0.069,111.0
2021-02-23T08:28:03,42.805,6.029,0.067,-0.024,0.044,106.0,106.0,101.0,13.4,1505.2,325.1,-0.8,1.8,2470.607,13.28,0.071,109.7
2021-02-23T08:31:03,42.805,6.029,0.06,0.007,0.033,104.0,104.0,103.0,13.4,1505.2,324.4,-0.7,1.8,2470.62,13.28,0.06,83.3
2021-02-23T08:34:03,42.805,6.029,0.044,-0.022,0.002,105.0,106.0,104.0,13.3,1505.2,325.4,-0.7,1.9,2470.595,13.28,0.049,116.6
2021-02-23T08:37:03,42.805,6.029,0.05,-0.01,0.018,104.0,107.0,103.0,13.4,1505.2,326.0,-0.7,1.8,2470.622,13.28,0.05,101.3
2021-02-23T08:40:03,42.805,6.029,0.065,-0.043,0.033,104.0,106.0,103.0,13.4,1505.2,324.7,-0.8,1.9,2470.579,13.28,0.077,123.5
2021-02-23T08:43:03,42.805,6.029,0.075,-0.031,0.024,104.0,106.0,103.0,13.4,1505.2,327.6,-0.8,1.8,2470.596,13.28,0.081,112.5
2021-02-23T08:46:03,42.805,6.029,0.067,-0.019,0.026,104.0,106.0,103.0,13.4,1505.2,326.3,-0.8,1.8,2470.576,13.28,0.069,105.8
2021-02-23T08:49:03,42.805,6.029,0.066,-0.013,0.029,106.0,105.0,102.0,13.3,1505.2,326.3,-0.8,1.8,2470.589,13.28,0.067,101.1
2021-02-23T08:52:03,42.805,6.029,0.074,-0.029,-0.012,106.0,105.0,103.0,13.3,1505.2,325.6,-0.7,1.8,2470.618,13.28,0.079,111.4
2021-02-23T08:55:03,42.805,6.029,0.044,-0.034,-0.013,105.0,106.0,103.0,13.4,1505.2,326.4,-0.8,1.8,2470.624,13.28,0.055,127.7
2021-02-23T08:58:03,42.805,6.029,0.047,-0.02,0.004,105.0,105.0,102.0,13.3,1505.2,325.4,-0.7,1.8,2470.579,13.28,0.051,113.0
2021-02-23T09:04:03,42.805,6.029,0.072,-0.023,0.032,104.0,105.0,105.0,13.4,1505.2,325.2,-0.8,1.8,2470.648,13.28,0.075,107.7
2021-02-23T09:07:03,42.805,6.029,0.044,0.0,0.032,104.0,107.0,103.0,13.3,1505.2,323.3,-0.7,1.8,2470.647,13.28,0.044,90.0
2021-02-23T09:10:03,42.805,6.029,0.063,-0.029,-0.001,106.0,105.0,103.0,13.3,1505.2,325.4,-0.7,1.8,2470.603,13.28,0.069,114.7
2021-02-23T09:13:03,42.805,6.029,0.069,-0.021,0.025,105.0,105.0,103.0,13.4,1505.2,325.4,-0.7,1.8,2470.608,13.28,0.072,106.9
2021-02-23T09:16:03,42.805,6.029,0.084,-0.016,0.009,105.0,106.0,105.0,13.4,1505.2,326.4,-0.7,1.8,2470.577,13.28,0.085,100.8
2021-02-23T09:19:03,42.805,6.029,0.064,-0.023,0.0,104.0,106.0,103.0,13.3,1505.2,324.4,-0.8,1.8,2470.595,13.28,0.068,109.8
2021-02-23T09:22:03,42.805,6.029,0.046,-0.047,0.002,104.0,106.0,103.0,13.3,1505.2,327.5,-0.8,1.8,2470.594,13.28,0.065,135.6
2021-02-23T09:25:03,42.805,6.029,0.061,-0.02,0.026,105.0,105.0,103.0,13.4,1505.2,327.4,-0.7,1.8,2470.578,13.28,0.064,108.1
2021-02-23T09:28:03,42.805,6.029,0.05,-0.016,0.034,104.0,107.0,103.0,13.4,1505.2,327.6,-0.8,1.8,2470.574,13.28,0.052,107.7
2021-02-23T09:31:03,42.805,6.029,0.07,-0.006,0.029,105.0,107.0,103.0,13.4,1505.2,324.2,-0.8,1.8,2470.601,13.28,0.07,94.9
2021-02-23T09:34:03,42.805,6.029,0.065,-0.005,0.006,106.0,104.0,103.0,13.4,1505.2,325.3,-0.8,1.9,2470.597,13.28,0.065,94.4
2021-02-23T09:37:03,42.805,6.029,0.049,-0.007,0.029,105.0,106.0,104.0,13.4,1505.2,323.3,-0.7,1.8,2470.556,13.28,0.049,98.1
2021-02-23T09:40:03,42.805,6.029,0.07,-0.018,0.019,105.0,105.0,103.0,13.4,1505.2,326.3,-0.8,1.8,2470.577,13.28,0.072,104.4
2021-02-23T09:43:03,42.805,6.029,0.076,-0.031,0.057,105.0,106.0,103.0,13.3,1505.2,328.3,-0.8,1.8,2470.595,13.28,0.082,112.2
2021-02-23T09:46:03,42.805,6.029,0.067,-0.027,0.033,105.0,106.0,103.0,13.4,1505.2,327.4,-0.8,1.8,2470.568,13.28,0.072,111.9
2021-02-23T09:49:03,42.805,6.029,0.049,-0.019,0.028,105.0,105.0,103.0,13.4,1505.2,327.8,-0.7,1.8,2470.589,13.28,0.052,111.2
2021-02-23T09:52:03,42.805,6.029,0.055,-0.025,-0.01,105.0,106.0,103.0,13.4,1505.2,328.1,-0.8,1.8,2470.563,13.28,0.06,114.4
2021-02-23T09:55:03,42.805,6.029,0.054,-0.02,0.007,105.0,105.0,104.0,13.4,1505.2,327.6,-0.7,1.8,2470.553,13.28,0.057,110.3
2021-02-23T09:58:03,42.805,6.029,0.073,-0.018,0.043,105.0,105.0,103.0,13.4,1505.2,326.3,-0.8,1.8,2470.579,13.28,0.075,103.8